MESAT1

Last updated on Sun Aug 09 2026 00:03:16 GMT+0000 (Coordinated Universal Time)

1 60209U 24125G 26220.55849846 .00045623 00000+0 38538-3 0 9991 2 60209 97.2212 79.4527 0008000 34.1691 326.0085 15.69606813117769
UTC large
Height (km)
Speed (km/s)
/
Latitude / Longitude
Inclination (degrees)
Orbital Period (minutes)
Azimuth
Elevation
Range (km)
Doppler Factor

Next 0 passes for location: London (51.5072 / 0.1276)

No passes found over London.
MESAT1